Driggs, ID

4:42 PM MDT on March 27, 2017 (GMT -0600)
Driggs

Weather History for KDIJ - November, 2013

Change the Weather History Date:

Friday, November 8, 2013

  Actual Average (KJAC) Record (KJAC)
Temperature  
Mean Temperature 38 °F -  
Max Temperature 43 °F 40 °F 57 °F (1965)
Min Temperature 34 °F 18 °F -4 °F (1990)
Degree Days  
Heating Degree Days 26    
Moisture  
Dew Point 23 °F    
Average Humidity 56    
Maximum Humidity 76    
Minimum Humidity 29    
Precipitation  
Precipitation 0.00 in - - ()
Sea Level Pressure  
Sea Level Pressure 29.96 in    
Wind  
Wind Speed 13 mph (SSW)    
Max Wind Speed 18 mph    
Max Gust Speed 29 mph    
Visibility 10 miles    
Events Rain    
Averages and records for this station are not official NWS values.
T = Trace of Precipitation, MM = Missing Value Source: NWS Daily Summary

Daily Weather History Graph

Daily Weather History Graph

Search for Another Location

Airport or City:

Trip Planner

Search our weather history database for the weather conditions in past years. The results will help you decide how hot, cold, wet, or windy it might be!

Date:

Astronomy

Nov. 08, 2013 Rise Set
Actual Time 7:09 AM MST 5:05 PM MST
Civil Twilight 6:39 AM MST 5:36 PM MST
Nautical Twilight 6:05 AM MST 6:10 PM MST
Astronomical Twilight 5:31 AM MST 6:44 PM MST
Moon 12:08 PM MST (11/8) 10:31 PM MST (11/8)
Length of Visible Light 10h 56m
Length of Day
9h 55m
Waxing Crescent, 34% of the Moon is Illuminated
Nov 8
Waxing Crescent
Nov 9
First Quarter
Nov 17
Full
Nov 25
Last Quarter
Dec 2
New

Hourly Weather History & Observations

Time (MST) Temp. Windchill Dew Point Humidity Pressure Visibility Wind Dir Wind Speed Gust Speed Precip Events Conditions
12:56 AM 41.9 °F 34.3 °F 30.0 °F 63% 29.82 in 10.0 mi SW 15.0 mph 20.7 mph 0.00 in Rain Light Rain
1:56 AM 43.0 °F 34.8 °F 30.0 °F 60% 29.80 in 10.0 mi SW 18.4 mph 28.8 mph 0.00 in   Overcast
2:56 AM 41.9 °F 34.3 °F 30.0 °F 63% 29.83 in 10.0 mi WSW 15.0 mph 25.3 mph 0.00 in   Mostly Cloudy
3:56 AM 39.9 °F 34.5 °F 31.1 °F 71% 29.85 in 10.0 mi SSW 8.1 mph - N/A   Mostly Cloudy
4:23 AM 39.2 °F 30.8 °F 32.0 °F 75% 29.94 in 10.0 mi SW 15.0 mph - N/A   Overcast
4:56 AM 38.8 °F 30.8 °F 32.0 °F 76% 29.88 in 10.0 mi SW 13.8 mph 24.2 mph N/A   Overcast
5:13 AM 39.2 °F 31.6 °F 30.2 °F 70% 29.96 in 10.0 mi SW 12.7 mph - N/A   Overcast
5:56 AM 38.8 °F 30.8 °F 30.0 °F 71% 29.88 in 10.0 mi SW 13.8 mph - N/A   Mostly Cloudy
6:56 AM 36.9 °F 30.7 °F 28.0 °F 70% 29.91 in 10.0 mi SW 8.1 mph - N/A   Scattered Clouds
7:56 AM 36.0 °F 28.5 °F 27.1 °F 70% 29.93 in 10.0 mi SE 10.4 mph - N/A   Mostly Cloudy
8:56 AM 36.9 °F 29.6 °F 25.2 °F 63% 29.97 in 10.0 mi South 10.4 mph - N/A   Overcast
9:56 AM 37.9 °F 29.6 °F 20.1 °F 49% 29.97 in 10.0 mi SSW 13.8 mph - N/A   Mostly Cloudy
10:56 AM 38.8 °F 31.2 °F 17.1 °F 41% 30.00 in 10.0 mi SSW 12.7 mph 23.0 mph N/A   Mostly Cloudy
11:56 AM 39.9 °F 32.1 °F 16.2 °F 38% 29.98 in 10.0 mi SSW 13.8 mph - N/A   Mostly Cloudy
12:56 PM 43.0 °F 38.2 °F 14.0 °F 31% 29.95 in 10.0 mi SSW 8.1 mph - N/A   Overcast
1:56 PM 41.9 °F 35.4 °F 12.0 °F 30% 29.95 in 10.0 mi SW 11.5 mph - N/A   Scattered Clouds
2:56 PM 41.0 °F 33.9 °F 11.1 °F 29% 29.96 in 10.0 mi SW 12.7 mph 19.6 mph N/A   Mostly Cloudy
3:56 PM 38.8 °F 31.6 °F 14.0 °F 36% 29.98 in 10.0 mi SW 11.5 mph - N/A   Overcast
4:56 PM 37.9 °F 32.1 °F 20.1 °F 49% 30.01 in 10.0 mi SW 8.1 mph - N/A   Mostly Cloudy
5:56 PM 36.9 °F 28.2 °F 24.1 °F 60% 30.02 in 10.0 mi South 13.8 mph - 0.00 in   Overcast
6:56 PM 36.9 °F 30.7 °F 21.0 °F 53% 30.04 in 10.0 mi SSW 8.1 mph - N/A   Overcast
7:56 PM 36.9 °F 31.4 °F 20.1 °F 51% 30.05 in 10.0 mi SSW 6.9 mph - 0.00 in   Overcast
8:56 PM 34.9 °F 30.8 °F 25.2 °F 68% 30.06 in 10.0 mi SE 4.6 mph - N/A   Overcast
9:56 PM 36.0 °F 29.0 °F 22.1 °F 57% 30.06 in 10.0 mi South 9.2 mph - N/A   Overcast
10:56 PM 36.0 °F 31.1 °F 24.1 °F 62% 30.05 in 10.0 mi SSE 5.8 mph - N/A   Overcast
11:56 PM 36.9 °F 29.6 °F 20.1 °F 51% 30.04 in 10.0 mi South 10.4 mph - N/A   Overcast